[[{"header":{"parameterUnit":"m.s-1","parameterCategory":1,"la1":30.2991,"la2":30.254,"lo1":-89.0895,"lo2":-89.0444,"dy":0.0017,"dx":0.0017,"nx":28,"ny":28,"refTime":"2025-08-23T21:00:00:Z","depth":0,"parameterNumber":2,"parameterNumberName":"U-component_of_WINDS"},"data":[0,0,0,0,0,0,0,0,0,0,0,0,0,0,0,0,0,0,0,0,0,0,0,0,0,0,0,0,0,0,0,0,0,0,0,0,0,0,0,0,0,0,0,0,0,0,0,0,0,0,0,0,0,0,0,0,0,0,-1.2259,-1.2258,0,-1.2185,-1.2184,-1.2183,-1.2111,-1.211,-1.211,-1.2109,-1.2033,-1.2032,-1.2031,0,0,0,0,0,0,0,0,0,0,0,0,0,-1.234,-1.2339,-1.2259,-1.2258,-1.2257,-1.2185,-1.2184,-1.2183,-1.2112,-1.211,-1.2109,-1.2108,-1.2033,-1.2032,-1.2031,0,0,0,0,0,0,0,0,0,0,0,0,0,-1.2289,-1.2339,-1.2259,-1.2213,-1.2208,-1.2185,-1.2184,-1.2183,-1.2112,-1.211,-1.2109,-1.2108,-1.2034,-1.2032,-1.203,-1.2048,0,0,-1.2025,-1.2024,0,0,0,0,0,0,0,0,-1.2292,-1.2286,-1.2221,-1.2216,-1.221,-1.2156,-1.2185,-1.2137,-1.2112,-1.2148,-1.2109,-1.2107,-1.2075,-1.207,-1.2059,-1.2044,-1.2041,-1.2025,-1.2024,-1.2023,-1.2023,0,0,0,0,0,0,0,-1.2296,-1.2289,-1.223,-1.222,-1.2214,-1.2196,-1.2187,-1.2175,-1.212,-1.2145,-1.214,-1.2132,-1.2072,-1.2061,-1.2057,-1.204,-1.2025,-1.2024,-1.2022,-1.2022,-1.2036,-1.2038,0,0,0,0,0,0,-1.2306,-1.2293,-1.2232,-1.2227,-1.2249,-1.2196,-1.2186,-1.2175,-1.212,-1.2111,-1.2133,-1.2129,-1.2064,-1.2059,-1.2054,-1.207,-1.2023,-1.2022,-1.2021,-1.2035,-1.2037,-1.2038,0,0,0,0,0,0,-1.2308,-1.2302,-1.2235,-1.2259,-1.2249,-1.2196,-1.2184,-1.2174,-1.2163,-1.2111,-1.2101,-1.2132,-1.2063,-1.2056,-1.205,-1.2067,-1.2021,-1.2019,-1.2033,-1.2036,-1.2037,-1.2104,0,0,0,0,0,0,-1.2311,-1.2303,-1.2308,-1.2259,-1.2248,-1.2232,-1.2185,-1.2174,-1.216,-1.2154,-1.2107,-1.2098,-1.2062,-1.2053,-1.2048,-1.2064,-1.2018,-1.2032,-1.2034,-1.2037,-1.21,-1.2108,-1.2115,0,0,0,0,0,-1.2314,-1.233,-1.2309,-1.2302,-1.2253,-1.2233,-1.2227,-1.2184,-1.2162,-1.2167,-1.2134,-1.21,-1.2066,-1.2053,-1.2047,-1.2062,-1.203,-1.2034,-1.2037,-1.2097,-1.2107,-1.2115,0,0,0,0,0,0,-1.2382,-1.2322,-1.2299,-1.2299,-1.2272,-1.2221,-1.2226,-1.2196,-1.2174,-1.2169,-1.2117,-1.2108,-1.2107,-1.2084,-1.207,-1.2077,-1.2044,-1.2046,-1.2091,-1.21,-1.2108,-1.2113,-1.2016,0,0,0,0,0,-1.2397,-1.2385,-1.2334,-1.2339,-1.2327,-1.2279,-1.2269,-1.2238,-1.2208,-1.2196,-1.2163,-1.2135,-1.2118,-1.2108,-1.209,-1.2097,-1.2086,-1.2105,-1.2113,-1.2119,-1.2121,-1.2124,-1.2132,-1.2049,-1.2049,-1.2049,0,0,-1.2427,-1.2394,-1.2389,-1.2352,-1.2327,-1.2317,-1.227,-1.226,-1.2252,-1.2195,-1.2187,-1.2162,-1.2127,-1.2128,-1.2127,-1.2109,-1.2142,-1.2123,-1.2129,-1.2127,-1.2128,-1.2136,-1.2143,-1.2051,-1.2051,-1.205,0,0,-1.2477,-1.2451,-1.2452,-1.2429,-1.2393,-1.2361,-1.2362,-1.2316,-1.2298,-1.2289,-1.2246,-1.2236,-1.2208,-1.2186,-1.2171,-1.2215,-1.2183,-1.2211,-1.2249,-1.2253,-1.2259,-1.2265,-1.2281,-1.2287,-1.2213,-1.2213,-1.2214,0,-1.252,-1.2502,-1.2457,-1.245,-1.2435,-1.2384,-1.2386,-1.2365,-1.2325,-1.2316,-1.2297,-1.2262,-1.2235,-1.223,-1.2241,-1.2231,-1.223,-1.2215,-1.2262,-1.2267,-1.2272,-1.2286,-1.2292,-1.2217,-1.2217,-1.2216,-1.2216,0,-1.2556,-1.2544,-1.255,-1.2513,-1.2499,-1.2496,-1.2452,-1.2443,-1.2415,-1.2386,-1.2379,-1.2345,-1.232,-1.2317,-1.2289,-1.2308,-1.2298,-1.2272,-1.2237,-1.2284,-1.2297,-1.2302,-1.2222,-1.2221,-1.222,-1.2219,0,0,-1.2644,-1.2584,-1.2586,-1.2569,-1.2527,-1.2517,-1.2513,-1.2488,-1.2482,-1.2457,-1.2452,-1.2431,-1.2406,-1.2389,-1.2359,-1.2362,-1.24,-1.2335,-1.2333,-1.2347,-1.242,-1.2439,-1.2447,-1.2379,-1.238,-1.238,-1.2422,0,-1.2687,-1.2675,-1.2636,-1.2637,-1.2626,-1.2579,-1.2575,-1.2549,-1.2523,-1.251,-1.2481,-1.2467,-1.2435,-1.2425,-1.2426,-1.2395,-1.2413,-1.2392,-1.2374,-1.2374,-1.2383,-1.2453,-1.2473,-1.2515,-1.2427,-1.2428,-1.2429,0,-1.2734,-1.2712,-1.2712,-1.2671,-1.2665,-1.2662,-1.2637,-1.2626,-1.2596,-1.2576,-1.2559,-1.2525,-1.2519,-1.2489,-1.248,-1.2466,-1.2457,-1.2441,-1.2441,-1.2437,-1.2403,-1.245,-1.2527,-1.2533,-1.2436,-1.2435,-1.2435,0,-1.2798,-1.2769,-1.2765,-1.2752,-1.2704,-1.2703,-1.2683,-1.2652,-1.264,-1.2619,-1.2611,-1.2589,-1.2577,-1.2561,-1.2523,-1.2504,-1.2519,-1.2485,-1.2503,-1.2504,-1.2506,-1.2506,-1.2582,-1.2503,-1.2503,-1.2503,-1.2503,0,-1.2848,-1.285,-1.2793,-1.2791,-1.2792,-1.2748,-1.275,-1.2726,-1.2699,-1.2691,-1.265,-1.2644,-1.2594,-1.2583,-1.2553,-1.2551,-1.2546,-1.253,-1.2522,-1.2533,-1.2535,-1.2526,-1.2521,-1.2504,-1.2504,-1.2504,-1.2503,0,-1.2919,-1.2881,-1.2874,-1.283,-1.2819,-1.2821,-1.2784,-1.278,-1.2752,-1.2743,-1.2739,-1.2695,-1.268,-1.2641,-1.2615,-1.2595,-1.2601,-1.2587,-1.2611,-1.2606,-1.2625,-1.2624,-1.2696,-1.2703,-1.2621,-1.2622,-1.2623,0,-1.2953,-1.2953,-1.291,-1.2902,-1.2883,-1.2871,-1.2859,-1.2817,-1.2806,-1.2773,-1.2774,-1.2755,-1.2738,-1.2716,-1.2682,-1.2663,-1.2647,-1.2674,-1.2644,-1.2656,-1.2647,-1.2647,-1.2647,-1.268,-1.2681,-1.2682,-1.2683,0,-1.3017,-1.2999,-1.2983,-1.2961,-1.2948,-1.2929,-1.2907,-1.2904,-1.2856,-1.2846,-1.283,-1.2817,-1.2792,-1.2774,-1.275,-1.273,-1.2699,-1.2693,-1.2696,-1.2707,-1.2721,-1.2713,-1.2628,-1.2691,-1.269,-1.269,-1.2689,-1.2689,-1.307,-1.3069,-1.3038,-1.3022,-1.3001,-1.2983,-1.2977,-1.2949,-1.2935,-1.2911,-1.2887,-1.2874,-1.2846,-1.281,-1.2793,-1.2782,-1.2766,-1.277,-1.2771,-1.2773,-1.2778,-1.2724,-1.2778,-1.2777,-1.2777,-1.2777,-1.2777,0,-1.3132,-1.311,-1.3096,-1.3068,-1.3056,-1.3028,-1.3004,-1.2995,-1.2984,-1.296,-1.2945,-1.2927,-1.2911,-1.2876,-1.2857,-1.2855,-1.284,-1.2851,-1.285,-1.2846,-1.2794,-1.2793,-1.2863,-1.2863,-1.2863,-1.2863,-1.2863,-1.2863,-1.3162,-1.3158,-1.3137,-1.3123,-1.3101,-1.3088,-1.3076,-1.3059,-1.304,-1.3022,-1.3008,-1.2986,-1.2958,-1.2937,-1.2921,-1.2911,-1.2905,-1.2921,-1.2907,-1.2858,-1.285,-1.2842,-1.2841,-1.292,-1.292,-1.296,-1.296,-1.2961]},{"header":{"parameterUnit":"m.s-1","parameterCategory":1,"la1":30.2991,"la2":30.254,"lo1":-89.0895,"lo2":-89.0444,"dy":0.0017,"dx":0.0017,"nx":28,"ny":28,"refTime":"2025-08-23T21:00:00:Z","depth":0,"parameterNumber":3,"parameterNumberName":"V-component_of_WINDS"},"data":[0,0,0,0,0,0,0,0,0,0,0,0,0,0,0,0,0,0,0,0,0,0,0,0,0,0,0,0,0,0,0,0,0,0,0,0,0,0,0,0,0,0,0,0,0,0,0,0,0,0,0,0,0,0,0,0,0,0,2.7184,2.7184,0,2.7186,2.7186,2.7186,2.7213,2.7214,2.7214,2.7215,2.7214,2.7214,2.7213,0,0,0,0,0,0,0,0,0,0,0,0,0,2.7199,2.7199,2.7184,2.7184,2.7184,2.7186,2.7186,2.7186,2.7213,2.7214,2.7214,2.7215,2.7214,2.7214,2.7213,0,0,0,0,0,0,0,0,0,0,0,0,0,2.7196,2.7199,2.7184,2.7198,2.7199,2.7186,2.7186,2.7186,2.7213,2.7214,2.7215,2.7216,2.7215,2.7214,2.7213,2.7186,0,0,2.721,2.7209,0,0,0,0,0,0,0,0,2.7196,2.7196,2.7195,2.7197,2.7198,2.72,2.7192,2.7186,2.7212,2.7207,2.7215,2.7216,2.7209,2.7208,2.7206,2.7186,2.7186,2.721,2.7209,2.7209,2.7208,0,0,0,0,0,0,0,2.7197,2.7196,2.7185,2.7195,2.7197,2.7203,2.7203,2.7191,2.7202,2.7208,2.721,2.721,2.7209,2.7207,2.7206,2.7186,2.721,2.7209,2.7208,2.7208,2.7144,2.7143,0,0,0,0,0,0,2.7195,2.7196,2.7185,2.7185,2.72,2.7202,2.7202,2.7199,2.7202,2.7204,2.7209,2.7211,2.7208,2.7208,2.7207,2.7175,2.7209,2.7208,2.7207,2.7145,2.7144,2.7143,0,0,0,0,0,0,2.7195,2.7194,2.7185,2.7191,2.719,2.72,2.7196,2.7198,2.7196,2.7203,2.7205,2.7205,2.7209,2.7208,2.7191,2.7175,2.7207,2.7206,2.7147,2.7145,2.7143,2.7112,0,0,0,0,0,0,2.7196,2.7194,2.7185,2.719,2.719,2.717,2.7195,2.7197,2.7194,2.7197,2.72,2.7201,2.721,2.7193,2.719,2.7175,2.7206,2.7148,2.7146,2.7144,2.7115,2.711,2.7106,0,0,0,0,0,2.7196,2.7175,2.7184,2.7183,2.7178,2.7169,2.7168,2.718,2.7193,2.7183,2.7188,2.7201,2.7178,2.7191,2.7188,2.7172,2.7149,2.7146,2.7144,2.7117,2.7111,2.7106,0,0,0,0,0,0,2.7166,2.7176,2.7186,2.7166,2.7167,2.7174,2.7161,2.7173,2.7169,2.7171,2.7185,2.7185,2.7166,2.7168,2.7182,2.7147,2.7166,2.7163,2.7146,2.714,2.7136,2.7135,2.7205,0,0,0,0,0,2.7157,2.715,2.7159,2.7141,2.7141,2.7151,2.7147,2.7156,2.7157,2.7157,2.716,2.7159,2.7152,2.7146,2.714,2.7116,2.7116,2.7104,2.7099,2.7095,2.7092,2.7078,2.7072,2.7134,2.7135,2.7135,0,0,2.7139,2.7143,2.7138,2.7135,2.7136,2.7127,2.7151,2.714,2.7133,2.7155,2.7139,2.7142,2.7142,2.7121,2.7112,2.7122,2.7075,2.7092,2.7089,2.7087,2.7075,2.7069,2.7064,2.7133,2.7133,2.7133,0,0,2.71,2.7103,2.7088,2.7089,2.7092,2.7099,2.7095,2.71,2.7103,2.7088,2.7104,2.7096,2.7083,2.7082,2.7079,2.7041,2.7052,2.7039,2.7014,2.7,2.6995,2.6991,2.6976,2.6971,2.7036,2.7036,2.7035,0,2.7076,2.7064,2.7079,2.7067,2.7065,2.7086,2.707,2.707,2.7069,2.7067,2.7078,2.7062,2.7064,2.7042,2.7033,2.7031,2.7026,2.7037,2.6995,2.6991,2.6987,2.6973,2.6967,2.7034,2.7034,2.7034,2.7034,0,2.7034,2.7025,2.7013,2.7013,2.7009,2.6996,2.7007,2.7002,2.7012,2.7017,2.7001,2.7004,2.6998,2.6994,2.7003,2.6974,2.698,2.6993,2.7012,2.6979,2.6966,2.6961,2.7031,2.7032,2.7032,2.7033,0,0,2.6974,2.6984,2.6978,2.6979,2.6983,2.6976,2.6963,2.6959,2.6953,2.6952,2.6941,2.693,2.6942,2.694,2.6949,2.6937,2.6905,2.6952,2.6952,2.6942,2.6872,2.6861,2.6854,2.6914,2.6913,2.6912,2.6871,0,2.6936,2.6915,2.6928,2.6905,2.6896,2.6916,2.6905,2.6906,2.6911,2.6904,2.6909,2.6901,2.6919,2.6917,2.6907,2.6911,2.6891,2.6915,2.6901,2.6901,2.6899,2.6848,2.6836,2.6797,2.6867,2.6866,2.6865,0,2.6887,2.6886,2.6862,2.6868,2.6864,2.6854,2.6851,2.6844,2.6846,2.685,2.6848,2.686,2.6846,2.6867,2.6848,2.6864,2.6859,2.6861,2.686,2.6857,2.6879,2.6842,2.6785,2.6779,2.6857,2.6858,2.6858,0,2.6844,2.6836,2.682,2.682,2.6827,2.6819,2.6821,2.6824,2.682,2.6817,2.6815,2.681,2.6807,2.6803,2.6812,2.6827,2.6792,2.6813,2.6794,2.6793,2.6784,2.6784,2.6724,2.6784,2.6784,2.6784,2.6784,0,2.6799,2.6783,2.6801,2.6791,2.6774,2.6789,2.6771,2.6776,2.6778,2.6768,2.6786,2.6776,2.6791,2.6782,2.679,2.6773,2.6771,2.6774,2.6775,2.6771,2.677,2.6767,2.6769,2.6782,2.6783,2.6783,2.6783,0,2.6747,2.6759,2.6743,2.6751,2.6753,2.674,2.6746,2.6737,2.6744,2.6732,2.673,2.674,2.6732,2.6742,2.6734,2.6739,2.6714,2.6721,2.6714,2.6715,2.6694,2.6696,2.6628,2.662,2.6687,2.6686,2.6686,0,2.6716,2.6704,2.6712,2.6707,2.6709,2.6701,2.6698,2.6713,2.6709,2.671,2.67,2.6693,2.6688,2.6673,2.6679,2.6672,2.6678,2.6655,2.6677,2.6673,2.6675,2.6675,2.6674,2.665,2.6649,2.6648,2.6648,0,2.6659,2.6666,2.6661,2.6658,2.6654,2.6653,2.6652,2.6647,2.6663,2.6657,2.6649,2.6645,2.6637,2.6629,2.6625,2.6626,2.6639,2.6641,2.6636,2.663,2.6626,2.6626,2.67,2.6642,2.6643,2.6643,2.6643,2.6644,2.6616,2.6606,2.661,2.6604,2.6606,2.6605,2.6596,2.6603,2.6597,2.6592,2.6601,2.6591,2.6592,2.6588,2.6588,2.6579,2.6588,2.6581,2.6579,2.6576,2.6573,2.6629,2.6578,2.6578,2.6578,2.6579,2.6579,0,2.6559,2.6563,2.6557,2.6556,2.6551,2.6566,2.6566,2.656,2.6551,2.6552,2.6547,2.6537,2.653,2.6536,2.653,2.6522,2.6527,2.6519,2.6519,2.6519,2.6565,2.6569,2.6515,2.6515,2.6515,2.6515,2.6515,2.6515,2.6528,2.6512,2.652,2.6504,2.6508,2.6499,2.6497,2.6496,2.6497,2.6486,2.648,2.6485,2.6488,2.6482,2.6476,2.6478,2.6474,2.6463,2.6467,2.651,2.6516,2.6522,2.6526,2.6463,2.6463,2.6421,2.6421,2.6421]}]]